Year,Month,Day,Hour,Minute,Value (Times are PST for barometer in hPa)
2019,05,16,00,00,1000.00
2019,05,16,00,02,1000.00
2019,05,16,00,03,1000.00
2019,05,16,00,04,1000.00
2019,05,16,00,05,1000.00
2019,05,16,00,06,1000.00
2019,05,16,00,07,1000.00
2019,05,16,00,08,1000.00
2019,05,16,00,10,1000.00
2019,05,16,00,12,1000.00
2019,05,16,00,13,1000.00
2019,05,16,00,14,1000.00
2019,05,16,00,15,1000.00
2019,05,16,00,16,1000.00
2019,05,16,00,17,1000.00
2019,05,16,00,18,999.90
2019,05,16,00,19,999.90
2019,05,16,00,20,999.90
2019,05,16,00,21,999.90
2019,05,16,00,22,999.90
2019,05,16,00,23,999.90
2019,05,16,00,24,999.90
2019,05,16,00,25,999.90
2019,05,16,00,26,999.90
2019,05,16,00,27,999.90
2019,05,16,00,28,999.90
2019,05,16,00,29,999.90
2019,05,16,00,30,999.90
2019,05,16,00,31,999.90
2019,05,16,00,32,999.90
2019,05,16,00,33,999.70
2019,05,16,00,34,999.70
2019,05,16,00,35,999.70
2019,05,16,00,36,999.70
2019,05,16,00,37,999.70
2019,05,16,00,38,999.70
2019,05,16,00,39,999.70
2019,05,16,00,40,999.70
2019,05,16,00,41,999.70
2019,05,16,00,42,999.70
2019,05,16,00,43,999.70
2019,05,16,00,44,999.70
2019,05,16,00,45,999.70
2019,05,16,00,46,999.70
2019,05,16,00,47,999.70
2019,05,16,00,48,999.60
2019,05,16,00,49,999.60
2019,05,16,00,50,999.60
2019,05,16,00,51,999.60
2019,05,16,00,52,999.60
2019,05,16,00,53,999.60
2019,05,16,00,54,999.60
2019,05,16,00,55,999.60
2019,05,16,00,56,999.60
2019,05,16,00,57,999.60
2019,05,16,00,58,999.60
2019,05,16,00,59,999.60
2019,05,16,01,00,999.60
2019,05,16,01,01,999.60
2019,05,16,01,02,999.40
2019,05,16,01,03,999.40
2019,05,16,01,04,999.40
2019,05,16,01,06,999.40
2019,05,16,01,07,999.40
2019,05,16,01,08,999.40
2019,05,16,01,09,999.40
2019,05,16,01,10,999.40
2019,05,16,01,11,999.40
2019,05,16,01,12,999.40
2019,05,16,01,13,999.40
2019,05,16,01,14,999.40
2019,05,16,01,15,999.40
2019,05,16,01,16,999.40
2019,05,16,01,17,999.20
2019,05,16,01,18,999.20
2019,05,16,01,19,999.20
2019,05,16,01,20,999.20
2019,05,16,01,21,999.20
2019,05,16,01,22,999.20
2019,05,16,01,23,999.20
2019,05,16,01,24,999.20
2019,05,16,01,25,999.20
2019,05,16,01,26,999.20
2019,05,16,01,27,999.20
2019,05,16,01,28,999.20
2019,05,16,01,29,999.20
2019,05,16,01,30,999.20
2019,05,16,01,31,999.20
2019,05,16,01,32,999.10
2019,05,16,01,33,999.10
2019,05,16,01,34,999.10
2019,05,16,01,35,999.10
2019,05,16,01,36,999.10
2019,05,16,01,37,999.10
2019,05,16,01,38,999.10
2019,05,16,01,39,999.10
2019,05,16,01,40,999.10
2019,05,16,01,41,999.10
2019,05,16,01,42,999.10
2019,05,16,01,43,999.10
2019,05,16,01,44,999.10
2019,05,16,01,45,999.10
2019,05,16,01,46,999.10
2019,05,16,01,47,999.00
2019,05,16,01,48,999.00
2019,05,16,01,49,999.00
2019,05,16,01,50,999.00
2019,05,16,01,51,999.00
2019,05,16,01,52,999.00
2019,05,16,01,53,999.00
2019,05,16,01,54,999.00
2019,05,16,01,55,999.00
2019,05,16,01,56,999.00
2019,05,16,01,57,999.00
2019,05,16,01,58,999.00
2019,05,16,01,59,999.00
2019,05,16,02,00,999.00
2019,05,16,02,01,999.00
2019,05,16,02,02,999.00
2019,05,16,02,03,999.00
2019,05,16,02,04,999.00
2019,05,16,02,05,999.00
2019,05,16,02,06,999.00
2019,05,16,02,07,999.00
2019,05,16,02,08,999.00
2019,05,16,02,09,999.00
2019,05,16,02,10,999.00
2019,05,16,02,11,999.00
2019,05,16,02,12,999.00
2019,05,16,02,13,999.00
2019,05,16,02,14,999.00
2019,05,16,02,15,999.00
2019,05,16,02,16,999.00
2019,05,16,02,17,999.00
2019,05,16,02,18,999.00
2019,05,16,02,19,999.00
2019,05,16,02,20,999.00
2019,05,16,02,21,999.00
2019,05,16,02,22,999.00
2019,05,16,02,23,999.00
2019,05,16,02,24,999.00
2019,05,16,02,25,999.00
2019,05,16,02,26,999.00
2019,05,16,02,27,999.00
2019,05,16,02,28,999.00
2019,05,16,02,29,999.00
2019,05,16,02,30,999.00
2019,05,16,02,31,999.00
2019,05,16,02,32,998.70
2019,05,16,02,33,998.70
2019,05,16,02,34,998.70
2019,05,16,02,35,998.70
2019,05,16,02,36,998.70
2019,05,16,02,37,998.70
2019,05,16,02,38,998.70
2019,05,16,02,39,998.70
2019,05,16,02,40,998.70
2019,05,16,02,41,998.70
2019,05,16,02,42,998.70
2019,05,16,02,43,998.70
2019,05,16,02,44,998.70
2019,05,16,02,45,998.70
2019,05,16,02,46,998.70
2019,05,16,02,47,998.90
2019,05,16,02,48,998.90
2019,05,16,02,49,998.90
2019,05,16,02,50,998.90
2019,05,16,02,51,998.90
2019,05,16,02,52,998.90
2019,05,16,02,53,998.90
2019,05,16,02,54,998.90
2019,05,16,02,55,998.90
2019,05,16,02,56,998.90
2019,05,16,02,57,998.90
2019,05,16,02,58,998.90
2019,05,16,02,59,998.90
2019,05,16,03,00,998.90
2019,05,16,03,01,998.90
2019,05,16,03,02,998.50
2019,05,16,03,03,998.50
2019,05,16,03,04,998.50
2019,05,16,03,05,998.50
2019,05,16,03,06,998.50
2019,05,16,03,07,998.50
2019,05,16,03,08,998.50
2019,05,16,03,09,998.50
2019,05,16,03,10,998.50
2019,05,16,03,11,998.50
2019,05,16,03,12,998.50
2019,05,16,03,13,998.50
2019,05,16,03,14,998.50
2019,05,16,03,15,998.50
2019,05,16,03,16,998.50
2019,05,16,03,17,998.50
2019,05,16,03,18,998.50
2019,05,16,03,19,998.50
2019,05,16,03,20,998.50
2019,05,16,03,21,998.50
2019,05,16,03,22,998.50
2019,05,16,03,23,998.50
2019,05,16,03,24,998.50
2019,05,16,03,25,998.50
2019,05,16,03,26,998.50
2019,05,16,03,27,998.50
2019,05,16,03,28,998.50
2019,05,16,03,29,998.50
2019,05,16,03,30,998.50
2019,05,16,03,31,998.50
2019,05,16,03,32,998.40
2019,05,16,03,33,998.40
2019,05,16,03,34,998.40
2019,05,16,03,35,998.40
2019,05,16,03,36,998.40
2019,05,16,03,37,998.40
2019,05,16,03,38,998.40
2019,05,16,03,39,998.40
2019,05,16,03,40,998.40
2019,05,16,03,41,998.40
2019,05,16,03,42,998.40
2019,05,16,03,43,998.40
2019,05,16,03,44,998.40
2019,05,16,03,45,998.40
2019,05,16,03,46,998.40
2019,05,16,03,47,998.30
2019,05,16,03,48,998.30
2019,05,16,03,49,998.30
2019,05,16,03,50,998.30
2019,05,16,03,51,998.30
2019,05,16,03,52,998.30
2019,05,16,03,53,998.30
2019,05,16,03,54,998.30
2019,05,16,03,55,998.30
2019,05,16,03,56,998.30
2019,05,16,03,57,998.30
2019,05,16,03,58,998.30
2019,05,16,03,59,998.30
2019,05,16,04,00,998.30
2019,05,16,04,01,998.30
2019,05,16,04,02,998.00
2019,05,16,04,03,998.00
2019,05,16,04,04,998.00
2019,05,16,04,05,998.00
2019,05,16,04,06,998.00
2019,05,16,04,07,998.00
2019,05,16,04,08,998.00
2019,05,16,04,09,998.00
2019,05,16,04,10,998.00
2019,05,16,04,11,998.00
2019,05,16,04,12,998.00
2019,05,16,04,13,998.00
2019,05,16,04,14,998.00
2019,05,16,04,15,998.00
2019,05,16,04,16,998.00
2019,05,16,04,17,998.00
2019,05,16,04,18,998.00
2019,05,16,04,19,998.00
2019,05,16,04,20,998.00
2019,05,16,04,21,998.00
2019,05,16,04,22,998.00
2019,05,16,04,23,998.00
2019,05,16,04,24,998.00
2019,05,16,04,25,998.00
2019,05,16,04,26,998.00
2019,05,16,04,27,998.00
2019,05,16,04,28,998.00
2019,05,16,04,29,998.00
2019,05,16,04,30,998.00
2019,05,16,04,31,998.00
2019,05,16,04,32,997.80
2019,05,16,04,33,997.80
2019,05,16,04,35,997.80
2019,05,16,04,36,997.80
2019,05,16,04,38,997.80
2019,05,16,04,39,997.80
2019,05,16,04,40,997.80
2019,05,16,04,41,997.80
2019,05,16,04,42,997.80
2019,05,16,04,43,997.80
2019,05,16,04,44,997.80
2019,05,16,04,45,997.80
2019,05,16,04,46,997.80
2019,05,16,04,47,997.80
2019,05,16,04,48,997.60
2019,05,16,04,49,997.60
2019,05,16,04,51,997.60
2019,05,16,04,53,997.60
2019,05,16,04,54,997.60
2019,05,16,04,55,997.60
2019,05,16,04,56,997.60
2019,05,16,04,57,997.60
2019,05,16,04,58,997.60
2019,05,16,04,59,997.60
2019,05,16,05,00,997.60
2019,05,16,05,01,997.60
2019,05,16,05,02,997.60
2019,05,16,05,03,997.50
2019,05,16,05,04,997.50
2019,05,16,05,05,997.50
2019,05,16,05,06,997.50
2019,05,16,05,07,997.50
2019,05,16,05,08,997.50
2019,05,16,05,09,997.50
2019,05,16,05,10,997.50
2019,05,16,05,11,997.50
2019,05,16,05,12,997.50
2019,05,16,05,14,997.50
2019,05,16,05,15,997.50
2019,05,16,05,16,997.50
2019,05,16,05,17,997.50
2019,05,16,05,18,997.50
2019,05,16,05,19,997.50
2019,05,16,05,20,997.50
2019,05,16,05,21,997.50
2019,05,16,05,22,997.50
2019,05,16,05,23,997.50
2019,05,16,05,24,997.50
2019,05,16,05,25,997.50
2019,05,16,05,26,997.50
2019,05,16,05,27,997.50
2019,05,16,05,28,997.50
2019,05,16,05,29,997.50
2019,05,16,05,30,997.50
2019,05,16,05,31,997.50
2019,05,16,05,32,997.50
2019,05,16,05,33,997.50
2019,05,16,05,34,997.50
2019,05,16,05,35,997.50
2019,05,16,05,36,997.50
2019,05,16,05,37,997.50
2019,05,16,05,38,997.50
2019,05,16,05,39,997.50
2019,05,16,05,40,997.50
2019,05,16,05,41,997.50
2019,05,16,05,42,997.50
2019,05,16,05,43,997.50
2019,05,16,05,44,997.50
2019,05,16,05,45,997.50
2019,05,16,05,46,997.50
2019,05,16,05,47,997.50
2019,05,16,05,48,997.50
2019,05,16,05,49,997.50
2019,05,16,05,50,997.50
2019,05,16,05,51,997.50
2019,05,16,05,52,997.50
2019,05,16,05,53,997.50
2019,05,16,05,54,997.50
2019,05,16,05,55,997.50
2019,05,16,05,56,997.50
2019,05,16,05,57,997.50
2019,05,16,05,58,997.50
2019,05,16,05,59,997.50
2019,05,16,06,00,997.50
2019,05,16,06,01,997.50
2019,05,16,06,02,997.30
2019,05,16,06,03,997.30
2019,05,16,06,04,997.30
2019,05,16,06,05,997.30
2019,05,16,06,06,997.30
2019,05,16,06,07,997.30
2019,05,16,06,08,997.30
2019,05,16,06,09,997.30
2019,05,16,06,10,997.30
2019,05,16,06,11,997.30
2019,05,16,06,12,997.30
2019,05,16,06,13,997.30
2019,05,16,06,14,997.30
2019,05,16,06,15,997.30
2019,05,16,06,16,997.30
2019,05,16,06,17,997.50
2019,05,16,06,18,997.50
2019,05,16,06,19,997.50
2019,05,16,06,20,997.50
2019,05,16,06,21,997.50
2019,05,16,06,22,997.50
2019,05,16,06,23,997.50
2019,05,16,06,24,997.50
2019,05,16,06,25,997.50
2019,05,16,06,26,997.50
2019,05,16,06,27,997.50
2019,05,16,06,28,997.50
2019,05,16,06,29,997.50
2019,05,16,06,30,997.50
2019,05,16,06,31,997.50
2019,05,16,06,32,997.50
2019,05,16,06,33,997.50
2019,05,16,06,34,997.50
2019,05,16,06,35,997.50
2019,05,16,06,36,997.50
2019,05,16,06,37,997.50
2019,05,16,06,38,997.50
2019,05,16,06,39,997.50
2019,05,16,06,40,997.50
2019,05,16,06,41,997.50
2019,05,16,06,42,997.50
2019,05,16,06,43,997.50
2019,05,16,06,44,997.50
2019,05,16,06,45,997.50
2019,05,16,06,46,997.50
2019,05,16,06,47,997.50
2019,05,16,06,48,997.50
2019,05,16,06,49,997.50
2019,05,16,06,50,997.50
2019,05,16,06,51,997.50
2019,05,16,06,52,997.50
2019,05,16,06,53,997.50
2019,05,16,06,54,997.50
2019,05,16,06,55,997.50
2019,05,16,06,56,997.50
2019,05,16,06,57,997.50
2019,05,16,06,58,997.50
2019,05,16,06,59,997.50
2019,05,16,07,00,997.50
2019,05,16,07,01,997.50
2019,05,16,07,02,997.50
2019,05,16,07,03,997.50
2019,05,16,07,04,997.50
2019,05,16,07,05,997.50
2019,05,16,07,06,997.50
2019,05,16,07,07,997.50
2019,05,16,07,08,997.50
2019,05,16,07,09,997.50
2019,05,16,07,10,997.50
2019,05,16,07,11,997.50
2019,05,16,07,12,997.50
2019,05,16,07,13,997.50
2019,05,16,07,14,997.50
2019,05,16,07,15,997.50
2019,05,16,07,16,997.50
2019,05,16,07,17,997.30
2019,05,16,07,18,997.30
2019,05,16,07,19,997.30
2019,05,16,07,20,997.30
2019,05,16,07,21,997.30
2019,05,16,07,22,997.30
2019,05,16,07,23,997.30
2019,05,16,07,24,997.30
2019,05,16,07,25,997.30
2019,05,16,07,26,997.30
2019,05,16,07,27,997.30
2019,05,16,07,28,997.30
2019,05,16,07,29,997.30
2019,05,16,07,30,997.30
2019,05,16,07,31,997.30
2019,05,16,07,32,997.30
2019,05,16,07,33,997.40
2019,05,16,07,34,997.40
2019,05,16,07,35,997.40
2019,05,16,07,36,997.40
2019,05,16,07,37,997.40
2019,05,16,07,38,997.40
2019,05,16,07,39,997.40
2019,05,16,07,40,997.40
2019,05,16,07,41,997.40
2019,05,16,07,42,997.40
2019,05,16,07,43,997.40
2019,05,16,07,44,997.40
2019,05,16,07,45,997.40
2019,05,16,07,46,997.40
2019,05,16,07,47,997.30
2019,05,16,07,48,997.30
2019,05,16,07,49,997.30
2019,05,16,07,50,997.30
2019,05,16,07,51,997.30
2019,05,16,07,52,997.30
2019,05,16,07,53,997.30
2019,05,16,07,54,997.30
2019,05,16,07,55,997.30
2019,05,16,07,56,997.30
2019,05,16,07,57,997.30
2019,05,16,07,58,997.30
2019,05,16,07,59,997.30
2019,05,16,08,00,997.30
2019,05,16,08,01,997.30
2019,05,16,08,02,997.30
2019,05,16,08,03,997.30
2019,05,16,08,04,997.30
2019,05,16,08,05,997.30
2019,05,16,08,06,997.30
2019,05,16,08,07,997.30
2019,05,16,08,08,997.30
2019,05,16,08,09,997.30
2019,05,16,08,10,997.30
2019,05,16,08,11,997.30
2019,05,16,08,12,997.30
2019,05,16,08,13,997.30
2019,05,16,08,14,997.30
2019,05,16,08,15,997.30
2019,05,16,08,16,997.30
2019,05,16,08,17,997.30
2019,05,16,08,18,997.30
2019,05,16,08,19,997.30
2019,05,16,08,20,997.30
2019,05,16,08,21,997.30
2019,05,16,08,22,997.30
2019,05,16,08,23,997.30
2019,05,16,08,24,997.30
2019,05,16,08,25,997.30
2019,05,16,08,26,997.30
2019,05,16,08,27,997.30
2019,05,16,08,28,997.30
2019,05,16,08,29,997.30
2019,05,16,08,30,997.30
2019,05,16,08,31,997.30
2019,05,16,08,32,997.30
2019,05,16,08,33,997.30
2019,05,16,08,34,997.30
2019,05,16,08,35,997.30
2019,05,16,08,36,997.30
2019,05,16,08,37,997.30
2019,05,16,08,38,997.30
2019,05,16,08,39,997.30
2019,05,16,08,40,997.30
2019,05,16,08,41,997.30
2019,05,16,08,42,997.30
2019,05,16,08,43,997.30
2019,05,16,08,44,997.30
2019,05,16,08,45,997.30
2019,05,16,08,46,997.30
2019,05,16,08,47,997.30
2019,05,16,08,48,997.30
2019,05,16,08,49,997.30
2019,05,16,08,50,997.30
2019,05,16,08,51,997.30
2019,05,16,08,52,997.30
2019,05,16,08,53,997.30
2019,05,16,08,54,997.30
2019,05,16,08,55,997.30
2019,05,16,08,56,997.30
2019,05,16,08,58,997.30
2019,05,16,08,59,997.30
2019,05,16,09,00,997.30
2019,05,16,09,01,997.30
2019,05,16,09,02,997.30
2019,05,16,09,03,997.30
2019,05,16,09,04,997.30
2019,05,16,09,05,997.30
2019,05,16,09,06,997.30
2019,05,16,09,07,997.30
2019,05,16,09,08,997.30
2019,05,16,09,09,997.30
2019,05,16,09,10,997.30
2019,05,16,09,11,997.30
2019,05,16,09,12,997.30
2019,05,16,09,13,997.30
2019,05,16,09,14,997.30
2019,05,16,09,15,997.30
2019,05,16,09,16,997.30
2019,05,16,09,17,997.20
2019,05,16,09,18,997.20
2019,05,16,09,19,997.20
2019,05,16,09,20,997.20
2019,05,16,09,21,997.20
2019,05,16,09,22,997.20
2019,05,16,09,23,997.20
2019,05,16,09,24,997.20
2019,05,16,09,25,997.20
2019,05,16,09,26,997.20
2019,05,16,09,27,997.20
2019,05,16,09,28,997.20
2019,05,16,09,29,997.20
2019,05,16,09,30,997.20
2019,05,16,09,31,997.20
2019,05,16,09,32,997.20
2019,05,16,09,33,997.20
2019,05,16,09,34,997.20
2019,05,16,09,35,997.20
2019,05,16,09,36,997.20
2019,05,16,09,37,997.20
2019,05,16,09,38,997.20
2019,05,16,09,39,997.20
2019,05,16,09,40,997.20
2019,05,16,09,41,997.20
2019,05,16,09,42,997.20
2019,05,16,09,43,997.20
2019,05,16,09,44,997.20
2019,05,16,09,45,997.20
2019,05,16,09,46,997.20
2019,05,16,09,47,997.20
2019,05,16,09,48,997.30
2019,05,16,09,49,997.30
2019,05,16,09,50,997.30
2019,05,16,09,51,997.30
2019,05,16,09,52,997.30
2019,05,16,09,53,997.30
2019,05,16,09,54,997.30
2019,05,16,09,55,997.30
2019,05,16,09,56,997.30
2019,05,16,09,57,997.30
2019,05,16,09,58,997.30
2019,05,16,09,59,997.30
2019,05,16,10,00,997.30
2019,05,16,10,01,997.30
2019,05,16,10,02,997.20
2019,05,16,10,03,997.20
2019,05,16,10,04,997.20
2019,05,16,10,05,997.20
2019,05,16,10,06,997.20
2019,05,16,10,07,997.20
2019,05,16,10,08,997.20
2019,05,16,10,09,997.20
2019,05,16,10,10,997.20
2019,05,16,10,11,997.20
2019,05,16,10,12,997.20
2019,05,16,10,13,997.20
2019,05,16,10,14,997.20
2019,05,16,10,15,997.20
2019,05,16,10,16,997.20
2019,05,16,10,17,997.20
2019,05,16,10,18,997.20
2019,05,16,10,19,997.20
2019,05,16,10,20,997.20
2019,05,16,10,21,997.20
2019,05,16,10,22,997.20
2019,05,16,10,23,997.20
2019,05,16,10,24,997.20
2019,05,16,10,25,997.20
2019,05,16,10,26,997.20
2019,05,16,10,27,997.20
2019,05,16,10,28,997.20
2019,05,16,10,29,997.20
2019,05,16,10,30,997.20
2019,05,16,10,31,997.20
2019,05,16,10,32,997.20
2019,05,16,10,33,997.20
2019,05,16,10,34,997.20
2019,05,16,10,35,997.20
2019,05,16,10,36,997.20
2019,05,16,10,37,997.20
2019,05,16,10,38,997.20
2019,05,16,10,39,997.20
2019,05,16,10,40,997.20
2019,05,16,10,41,997.20
2019,05,16,10,42,997.20
2019,05,16,10,43,997.20
2019,05,16,10,44,997.20
2019,05,16,10,45,997.20
2019,05,16,10,46,997.20
2019,05,16,10,47,997.20
2019,05,16,10,48,997.20
2019,05,16,10,49,997.20
2019,05,16,10,50,997.20
2019,05,16,10,51,997.20
2019,05,16,10,52,997.20
2019,05,16,10,53,997.20
2019,05,16,10,54,997.20
2019,05,16,10,55,997.20
2019,05,16,10,56,997.20
2019,05,16,10,57,997.20
2019,05,16,10,58,997.20
2019,05,16,10,59,997.20
2019,05,16,11,00,997.20
2019,05,16,11,01,997.20
2019,05,16,11,02,997.30
2019,05,16,11,03,997.30
2019,05,16,11,04,997.30
2019,05,16,11,05,997.30
2019,05,16,11,06,997.30
2019,05,16,11,07,997.30
2019,05,16,11,08,997.30
2019,05,16,11,09,997.30
2019,05,16,11,10,997.30
2019,05,16,11,11,997.30
2019,05,16,11,12,997.30
2019,05,16,11,13,997.30
2019,05,16,11,14,997.30
2019,05,16,11,15,997.30
2019,05,16,11,16,997.30
2019,05,16,11,17,997.30
2019,05,16,11,18,997.30
2019,05,16,11,19,997.30
2019,05,16,11,20,997.30
2019,05,16,11,21,997.30
2019,05,16,11,22,997.30
2019,05,16,11,23,997.30
2019,05,16,11,24,997.30
2019,05,16,11,25,997.30
2019,05,16,11,26,997.30
2019,05,16,11,27,997.30
2019,05,16,11,28,997.30
2019,05,16,11,29,997.30
2019,05,16,11,30,997.30
2019,05,16,11,31,997.30
2019,05,16,11,32,997.30
2019,05,16,11,33,997.30
2019,05,16,11,34,997.30
2019,05,16,11,35,997.30
2019,05,16,11,36,997.30
2019,05,16,11,37,997.30
2019,05,16,11,38,997.30
2019,05,16,11,39,997.30
2019,05,16,11,40,997.30
2019,05,16,11,41,997.30
2019,05,16,11,42,997.30
2019,05,16,11,43,997.30
2019,05,16,11,44,997.30
2019,05,16,11,45,997.30
2019,05,16,11,46,997.30
2019,05,16,11,47,997.30
2019,05,16,11,48,997.30
2019,05,16,11,49,997.30
2019,05,16,11,50,997.30
2019,05,16,11,51,997.30
2019,05,16,11,52,997.30
2019,05,16,11,53,997.30
2019,05,16,11,54,997.30
2019,05,16,11,55,997.30
2019,05,16,11,56,997.30
2019,05,16,11,58,997.30
2019,05,16,11,59,997.30
2019,05,16,12,00,997.30
2019,05,16,12,01,997.30
2019,05,16,12,02,997.30
2019,05,16,12,03,997.30
2019,05,16,12,04,997.30
2019,05,16,12,06,997.30
2019,05,16,12,07,997.30
2019,05,16,12,08,997.30
2019,05,16,12,09,997.30
2019,05,16,12,10,997.30
2019,05,16,12,11,997.30
2019,05,16,12,12,997.30
2019,05,16,12,13,997.30
2019,05,16,12,14,997.30
2019,05,16,12,15,997.30
2019,05,16,12,16,997.30
2019,05,16,12,17,997.30
2019,05,16,12,18,997.20
2019,05,16,12,19,997.20
2019,05,16,12,20,997.20
2019,05,16,12,21,997.20
2019,05,16,12,22,997.20
2019,05,16,12,23,997.20
2019,05,16,12,25,997.20
2019,05,16,12,27,997.20
2019,05,16,12,29,997.20
2019,05,16,12,31,997.20
2019,05,16,12,32,997.20
2019,05,16,12,33,997.20
2019,05,16,12,34,997.20
2019,05,16,12,35,997.20
2019,05,16,12,36,997.20
2019,05,16,12,37,997.20
2019,05,16,12,38,997.20
2019,05,16,12,39,997.20
2019,05,16,12,40,997.20
2019,05,16,12,41,997.20
2019,05,16,12,42,997.20
2019,05,16,12,43,997.20
2019,05,16,12,44,997.20
2019,05,16,12,45,997.20
2019,05,16,12,46,997.20
2019,05,16,12,47,997.20
2019,05,16,12,49,997.10
2019,05,16,12,50,997.10
2019,05,16,12,51,997.10
2019,05,16,12,52,997.10
2019,05,16,12,53,997.10
2019,05,16,12,54,997.10
2019,05,16,12,55,997.10
2019,05,16,12,56,997.10
2019,05,16,12,57,997.10
2019,05,16,12,58,997.10
2019,05,16,12,59,997.10
2019,05,16,13,00,997.10
2019,05,16,13,01,997.10
2019,05,16,13,02,997.10
2019,05,16,13,04,997.00
2019,05,16,13,06,997.00
2019,05,16,13,07,997.00
2019,05,16,13,08,997.00
2019,05,16,13,09,997.00
2019,05,16,13,10,997.00
2019,05,16,13,11,997.00
2019,05,16,13,12,997.00
2019,05,16,13,13,997.00
2019,05,16,13,14,997.00
2019,05,16,13,15,997.00
2019,05,16,13,16,997.00
2019,05,16,13,17,997.00
2019,05,16,13,18,996.90
2019,05,16,13,19,996.90
2019,05,16,13,20,996.90
2019,05,16,13,21,996.90
2019,05,16,13,22,996.90
2019,05,16,13,23,996.90
2019,05,16,13,24,996.90
2019,05,16,13,25,996.90
2019,05,16,13,26,996.90
2019,05,16,13,27,996.90
2019,05,16,13,28,996.90
2019,05,16,13,29,996.90
2019,05,16,13,30,996.90
2019,05,16,13,31,996.90
2019,05,16,13,32,996.90
2019,05,16,13,34,996.90
2019,05,16,13,35,996.90
2019,05,16,13,36,996.90
2019,05,16,13,37,996.90
2019,05,16,13,38,996.90
2019,05,16,13,39,996.90
2019,05,16,13,40,996.90
2019,05,16,13,41,996.90
2019,05,16,13,42,996.90
2019,05,16,13,43,996.90
2019,05,16,13,44,996.90
2019,05,16,13,45,996.90
2019,05,16,13,46,996.90
2019,05,16,13,47,996.90
2019,05,16,13,48,996.90
2019,05,16,13,49,996.90
2019,05,16,13,50,996.90
2019,05,16,13,51,996.90
2019,05,16,13,52,996.90
2019,05,16,13,53,996.90
2019,05,16,13,54,996.90
2019,05,16,13,55,996.90
2019,05,16,13,56,996.90
2019,05,16,13,57,996.90
2019,05,16,13,58,996.90
2019,05,16,13,59,996.90
2019,05,16,14,00,996.90
2019,05,16,14,01,996.90
2019,05,16,14,02,996.70
2019,05,16,14,03,996.70
2019,05,16,14,04,996.70
2019,05,16,14,05,996.70
2019,05,16,14,06,996.70
2019,05,16,14,07,996.70
2019,05,16,14,08,996.70
2019,05,16,14,09,996.70
2019,05,16,14,10,996.70
2019,05,16,14,11,996.70
2019,05,16,14,12,996.70
2019,05,16,14,13,996.70
2019,05,16,14,14,996.70
2019,05,16,14,15,996.70
2019,05,16,14,16,996.70
2019,05,16,14,17,996.40
2019,05,16,14,18,996.40
2019,05,16,14,19,996.40
2019,05,16,14,20,996.40
2019,05,16,14,21,996.40
2019,05,16,14,22,996.40
2019,05,16,14,23,996.40
2019,05,16,14,24,996.40
2019,05,16,14,25,996.40
2019,05,16,14,26,996.40
2019,05,16,14,27,996.40
2019,05,16,14,28,996.40
2019,05,16,14,29,996.40
2019,05,16,14,30,996.40
2019,05,16,14,31,996.40
2019,05,16,14,32,996.40
2019,05,16,14,33,996.40
2019,05,16,14,34,996.40
2019,05,16,14,35,996.40
2019,05,16,14,36,996.40
2019,05,16,14,37,996.40
2019,05,16,14,38,996.40
2019,05,16,14,39,996.40
2019,05,16,14,40,996.40
2019,05,16,14,41,996.40
2019,05,16,14,42,996.40
2019,05,16,14,43,996.40
2019,05,16,14,44,996.40
2019,05,16,14,45,996.40
2019,05,16,14,46,996.40
2019,05,16,14,47,996.40
2019,05,16,14,48,996.40
2019,05,16,14,49,996.40
2019,05,16,14,50,996.40
2019,05,16,14,51,996.40
2019,05,16,14,52,996.40
2019,05,16,14,53,996.40
2019,05,16,14,54,996.40
2019,05,16,14,55,996.40
2019,05,16,14,56,996.40
2019,05,16,14,58,996.40
2019,05,16,14,59,996.40
2019,05,16,15,00,996.40
2019,05,16,15,01,996.40
2019,05,16,15,02,996.40
2019,05,16,15,03,996.40
2019,05,16,15,04,996.40
2019,05,16,15,05,996.40
2019,05,16,15,06,996.40
2019,05,16,15,07,996.40
2019,05,16,15,08,996.40
2019,05,16,15,09,996.40
2019,05,16,15,10,996.40
2019,05,16,15,11,996.40
2019,05,16,15,12,996.40
2019,05,16,15,13,996.40
2019,05,16,15,14,996.40
2019,05,16,15,15,996.40
2019,05,16,15,16,996.40
2019,05,16,15,17,996.40
2019,05,16,15,18,996.40
2019,05,16,15,19,996.40
2019,05,16,15,20,996.40
2019,05,16,15,21,996.40
2019,05,16,15,22,996.40
2019,05,16,15,23,996.40
2019,05,16,15,24,996.40
2019,05,16,15,25,996.40
2019,05,16,15,26,996.40
2019,05,16,15,27,996.40
2019,05,16,15,28,996.40
2019,05,16,15,29,996.40
2019,05,16,15,30,996.40
2019,05,16,15,31,996.40
2019,05,16,15,32,996.30
2019,05,16,15,33,996.30
2019,05,16,15,34,996.30
2019,05,16,15,35,996.30
2019,05,16,15,36,996.30
2019,05,16,15,37,996.30
2019,05,16,15,38,996.30
2019,05,16,15,39,996.30
2019,05,16,15,40,996.30
2019,05,16,15,41,996.30
2019,05,16,15,42,996.30
2019,05,16,15,43,996.30
2019,05,16,15,44,996.30
2019,05,16,15,45,996.30
2019,05,16,15,46,996.30
2019,05,16,15,47,996.40
2019,05,16,15,48,996.40
2019,05,16,15,49,996.40
2019,05,16,15,50,996.40
2019,05,16,15,51,996.40
2019,05,16,15,52,996.40
2019,05,16,15,53,996.40
2019,05,16,15,54,996.40
2019,05,16,15,55,996.40
2019,05,16,15,56,996.40
2019,05,16,15,57,996.40
2019,05,16,15,58,996.40
2019,05,16,15,59,996.40
2019,05,16,16,00,996.40
2019,05,16,16,01,996.40
2019,05,16,16,02,996.30
2019,05,16,16,03,996.30
2019,05,16,16,04,996.30
2019,05,16,16,05,996.30
2019,05,16,16,06,996.30
2019,05,16,16,07,996.30
2019,05,16,16,08,996.30
2019,05,16,16,09,996.30
2019,05,16,16,10,996.30
2019,05,16,16,11,996.30
2019,05,16,16,12,996.30
2019,05,16,16,13,996.30
2019,05,16,16,14,996.30
2019,05,16,16,15,996.30
2019,05,16,16,16,996.30
2019,05,16,16,17,996.20
2019,05,16,16,18,996.20
2019,05,16,16,19,996.20
2019,05,16,16,20,996.20
2019,05,16,16,21,996.20
2019,05,16,16,22,996.20
2019,05,16,16,23,996.20
2019,05,16,16,24,996.20
2019,05,16,16,25,996.20
2019,05,16,16,26,996.20
2019,05,16,16,27,996.20
2019,05,16,16,28,996.20
2019,05,16,16,29,996.20
2019,05,16,16,30,996.20
2019,05,16,16,31,996.20
2019,05,16,16,32,996.10
2019,05,16,16,33,996.10
2019,05,16,16,34,996.10
2019,05,16,16,35,996.10
2019,05,16,16,36,996.10
2019,05,16,16,37,996.10
2019,05,16,16,38,996.10
2019,05,16,16,39,996.10
2019,05,16,16,40,996.10
2019,05,16,16,41,996.10
2019,05,16,16,42,996.10
2019,05,16,16,43,996.10
2019,05,16,16,44,996.10
2019,05,16,16,45,996.10
2019,05,16,16,46,996.10
2019,05,16,16,47,996.10
2019,05,16,16,48,996.10
2019,05,16,16,49,996.10
2019,05,16,16,50,996.10
2019,05,16,16,51,996.10
2019,05,16,16,52,996.10
2019,05,16,16,53,996.10
2019,05,16,16,54,996.10
2019,05,16,16,55,996.10
2019,05,16,16,56,996.10